Regional Weather Roundup
Issued by NWS

Home | Current Version | Previous Version | Graphics & Text | Print | Product List | Glossary On
Versions: 1 2 3 4 5 6 7 8 9 10 11 12 13 14 15 16 17 18 19 20 21 22 23 24 25 26 27 28 29 30 31 32 33 34 35 36 37 38 39 40 41 42 43 44 45 46 47 48 49 50
000
ASUS43 KLOT 182212
RWRIL

ILLINOIS REGIONAL WEATHER ROUNDUP
NATIONAL WEATHER SERVICE CHICAGO/ROMEOVILLE IL
400 PM CST WED JAN 18 2017

NOTE: "FAIR" INDICATES FEW OR NO CLOUDS BELOW 12,000 FEET WITH NO
SIGNIFICANT WEATHER AND/OR OBSTRUCTIONS TO VISIBILITY.

* THESE STATIONS ARE NOT UNDER NWS QUALITY CONTROL. THEY ALSO MAY NOT
  REPORT WEATHER SUCH AS PRECIPITATION OR FOG.

ILZ001-002-007-009-015-016-024-182300-
NORTHWEST ILLINOIS

CITY           SKY/WX    TMP DP  RH WIND       PRES   REMARKS
MOLINE         CLEAR     42  35  76 S3        30.04S
STERLING*      CLOUDY    36  33  89 VRB5      30.06S WCI  32
SAVANNA*       CLOUDY    36  32  87 SW5       30.04F WCI  32
$$

ILZ003-004-008-010-011-017-018-182300-
NORTH CENTRAL ILLINOIS

CITY           SKY/WX    TMP DP  RH WIND       PRES   REMARKS
ROCKFORD       CLOUDY    37  32  82 SW8       30.06R WCI  31
FREEPORT*      CLOUDY    36  34  91 SW7       30.06S WCI  30
ROCHELLE*      CLOUDY    37  34  91 SW10      30.06S WCI  29
DE KALB*       CLOUDY    35  33  92 SW9       30.07R WCI  27
$$

ILZ005-006-012>014-019>023-182300-
NORTHEAST ILLINOIS

CITY           SKY/WX    TMP DP  RH WIND       PRES   REMARKS
CHICAGO-OHARE  CLOUDY    36  32  85 SW8       30.05S WCI  30
CHICAGO-MIDWAY MOCLDY    36  31  82 SW7       30.06S WCI  30
AURORA         CLOUDY    37  32  82 SW9       30.07R WCI  30
LANSING*       CLOUDY    37  34  92 SW10      30.08S WCI  29
JOLIET*        CLOUDY    38  34  86 SW6       30.09R WCI  33
WAUKEGAN       CLOUDY    35  31  85 W7        30.04R WCI  29
DUPAGE AIRPORT CLOUDY    35  31  85 SW12      30.05S WCI  27
KANKAKEE*      CLOUDY    38  34  84 SW13      30.10R WCI  30
WHEELING       CLOUDY    35  30  82 SW7       30.07S WCI  29
MORRIS*        CLOUDY    37  33  86 SW8       30.07S WCI  30
ROMEOVILLE*    CLOUDY    36  35  96 SW10      30.08R WCI  28
NORTHERLY ISL    N/A     38  31  76 SW6         N/A  WCI  33
$$

LMZ740>746-182300-
SOUTHERN LAKE MICHIGAN

STATION/POSITION SKY/WX   TEMP    WIND        PRES    VSBY  WAVE
                          AIR SEA DIR/SP/G                  HT/PER
                          (F)     (DEG/KT/KT) (MB)    (MI)  (FT/S)
HARRISON CRIB              38     230/  5/  6   N/A
BURNHAM HARBOR             38     230/  6/ 12   N/A
CALUMET HARBOR             37     200/  7/ 10 1017.7R
BURNS HARBOR               38     200/  9/ 12 1019.0S
$$

ILZ025>027-034>036-040-047-049-050-058-095>099-182300-
WEST-CENTRAL ILLINOIS

CITY           SKY/WX    TMP DP  RH WIND       PRES   REMARKS
QUINCY         SUNNY     43  36  76 S10       30.08R
GALESBURG*     CLEAR     40  36  83 S7        30.04F
MACOMB*        CLOUDY    42  37  83 S7        30.08S
JACKSONVILLE*  PTCLDY    44  35  70 S8        30.10R
PITTSFIELD*    MOSUNNY   44  36  72 S6        30.10S
$$

ILZ028>032-037-038-041>044-048-051>054-059>061-182300-
CENTRAL ILLINOIS

CITY           SKY/WX    TMP DP  RH WIND       PRES   REMARKS
PONTIAC        CLOUDY    39  37  93 SW8       30.10R WCI  34
BLOOMINGTON    MOCLDY    38  35  89 SW10      30.08S WCI  31
DECATUR        CLOUDY    43  37  79 S8        30.10F
PEORIA         CLEAR     39  34  82 SW3       30.07F
LACON*         PTCLDY    38  32  80 SW8       30.08R WCI  32
LINCOLN*       CLOUDY    44  37  77 S6        30.10R
SPRINGFIELD    PTCLDY    45  36  70 S8        30.09F
TAYLORVILLE    PTCLDY    43  36  74 S12       30.11R
$$

ILZ033-039-045-046-055>057-062-063-182300-
EAST-CENTRAL ILLINOIS

CITY           SKY/WX    TMP DP  RH WIND       PRES   REMARKS
CHAMPAIGN      CLOUDY    40  35  83 S15       30.11S
RANTOUL*       CLOUDY    41  37  86 SW9       30.10S
MATTOON        CLOUDY    39  34  82 S8        30.10F WCI  33
PARIS*         CLOUDY    38  35  88 S12       30.14R WCI  31
$$

ILZ079-100>102-182300-
SOUTHWEST ILLINOIS

CITY           SKY/WX    TMP DP  RH WIND       PRES   REMARKS
ALTON          PTSUNNY   45  36  70 SE6       30.11F
BELLEVILLE     CLOUDY    44  37  76 SE5       30.11F
CAHOKIA*       CLOUDY    46  35  65 SE7       30.12S
SPARTA*        CLOUDY    44  36  74 SE5       30.13F
$$

ILZ064>066-069>071-074>076-080>082-084>086-088>090-092>094-182300-
SOUTH-CENTRAL ILLINOIS

CITY           SKY/WX    TMP DP  RH WIND       PRES   REMARKS
CARBONDALE     MOSUNNY   45  39  79 SE6       30.14S
CAIRO*         PTSUNNY   44  39  84 NE3       30.15F
EFFINGHAM*     CLOUDY    42  37  84 SE3       30.14S
MARION         PTSUNNY   48  39  71 S6        30.15S
MT. VERNON     MOCLDY    45  37  73 S7        30.15R
CENTRALIA*     PTCLDY    45  38  77 S5        30.13S
SALEM*         PTCLDY    46  37  69 S6        30.14R
METROPOLIS*    PTSUNNY   45  39  79 CALM      30.16S
$$

ILZ067-068-072-073-078-083-087-091-182300-
SOUTHEAST ILLINOIS

CITY           SKY/WX    TMP DP  RH WIND       PRES   REMARKS
LAWRENCEVILLE  CLOUDY    41  37  86 S8        30.15F
FLORA*         PTCLDY    44  37  78 S8        30.16R
FAIRFIELD*     CLOUDY    43  37  78 SE5       30.15R
HARRISBURG*    CLOUDY    45  39  78 SE5       30.15F
ROBINSON*      CLOUDY    39  35  86 SE5       30.16F
CARMI*         CLOUDY    43  38  80 SE6       30.15S
$$

ABBREVIATIONS USED IN REMARKS
   TC - TEMPERATURE IN CELSIUS
  WCI - WIND CHILL INDEX
   HX - HEAT INDEX
  VSB - VISIBILITY
$$




USA.gov is the U.S. government's official web portal to all federal, state and local government web resources and services.